| time (UTC) | temp F | wind direction | speed MPH | gust MPH | rain 1hr in | rain 24hr in | rain mn in | humidity % | barometer mb |
| 20260506195500 | 57 | 213 | 22.0 | 36.0 | 0.00 | 0.00 | 0.00 | 100 | 894.8 |
| 20260506194956 | 57 | 212 | 22.0 | 39.0 | 0.00 | 0.00 | 0.00 | 100 | 891.7 |
| 20260506194454 | 58 | 220 | 25.0 | 38.0 | 0.00 | 0.00 | 0.00 | 100 | 892.4 |
| 20260506193951 | 57 | 217 | 22.0 | 43.0 | 0.00 | 0.00 | 0.00 | 100 | 891.7 |
| 20260506193454 | 57 | 221 | 22.0 | 36.0 | 0.00 | 0.00 | 0.00 | 100 | 892.5 |
| 20260506193449 | 58 | 221 | 22.0 | 36.0 | 0.00 | 0.00 | 0.00 | 100 | 894.0 |
| 20260506192947 | 57 | 214 | 20.0 | 32.0 | 0.00 | 0.00 | 0.00 | 100 | 892.4 |
| 20260506192526 | 57 | 211 | 18.0 | 39.0 | 0.00 | 0.00 | 0.00 | 100 | 892.6 |
| 20260506192444 | 57 | 211 | 18.0 | 39.0 | 0.00 | 0.00 | 0.00 | 100 | 892.6 |
| 20260506192248 | 57 | 208 | 14.0 | 23.0 | 0.00 | 0.00 | 0.00 | 100 | 892.3 |
| 20260506191942 | 57 | 199 | 16.0 | 31.0 | 0.00 | 0.00 | 0.00 | 100 | 891.9 |
| 20260506191440 | 58 | 206 | 18.0 | 30.0 | 0.00 | 0.00 | 0.00 | 100 | 892.7 |
| 20260506190937 | 58 | 203 | 16.0 | 26.0 | 0.00 | 0.00 | 0.00 | 100 | 893.3 |
| 20260506190435 | 58 | 202 | 14.0 | 25.0 | 0.00 | 0.00 | 0.00 | 100 | 892.9 |
| 20260506185933 | 58 | 199 | 17.0 | 31.0 | 0.00 | 0.00 | 0.00 | 100 | 894.1 |
| 20260506185432 | 58 | 204 | 16.0 | 25.0 | 0.00 | 0.00 | 0.00 | 100 | 892.9 |
| 20260506184929 | 58 | 206 | 16.0 | 28.0 | 0.00 | 0.00 | 0.00 | 100 | 893.6 |
| 20260506184426 | 58 | 202 | 14.0 | 25.0 | 0.00 | 0.00 | 0.00 | 100 | 893.1 |
| 20260506183422 | 58 | 207 | 16.0 | 32.0 | 0.00 | 0.00 | 0.00 | 100 | 893.0 |
| 20260506182919 | 58 | 207 | 15.0 | 26.0 | 0.00 | 0.00 | 0.00 | 100 | 892.7 |
| 20260506182417 | 58 | 208 | 16.0 | 24.0 | 0.00 | 0.00 | 0.00 | 100 | 892.9 |
| 20260506181915 | 58 | 207 | 16.0 | 28.0 | 0.00 | 0.00 | 0.00 | 100 | 892.6 |
| 20260506181411 | 58 | 207 | 14.0 | 23.0 | 0.00 | 0.00 | 0.00 | 100 | 893.2 |
| 20260506181207 | 58 | 208 | 15.0 | 30.0 | 0.00 | 0.00 | 0.00 | 100 | 893.1 |
| 20260506181003 | 58 | 207 | 16.0 | 30.0 | 0.00 | 0.00 | 0.00 | 100 | 892.9 |
| 20260506180902 | 58 | 208 | 16.0 | 30.0 | 0.00 | 0.00 | 0.00 | 100 | 892.7 |
| 20260506180759 | 58 | 206 | 16.0 | 25.0 | 0.00 | 0.00 | 0.00 | 100 | 892.7 |
| 20260506180558 | 58 | 208 | 15.0 | 26.0 | 0.00 | 0.00 | 0.00 | 100 | 892.9 |
| 20260506180357 | 58 | 208 | 15.0 | 26.0 | 0.00 | 0.00 | 0.00 | 100 | 898.8 |
| 20260506180155 | 58 | 205 | 15.0 | 25.0 | 0.00 | 0.00 | 0.00 | 100 | 893.4 |
| 20260506175954 | 58 | 204 | 17.0 | 27.0 | 0.00 | 0.00 | 0.00 | 100 | 893.5 |
| 20260506175854 | 58 | 201 | 17.0 | 32.0 | 0.00 | 0.00 | 0.00 | 100 | 893.5 |
| 20260506175540 | 59 | 206 | 18.0 | 34.0 | 0.00 | 0.00 | 0.00 | 100 | 893.3 |
| 20260506175339 | 59 | 205 | 15.0 | 33.0 | 0.00 | 0.00 | 0.00 | 100 | 893.4 |
| 20260506175138 | 58 | 204 | 15.0 | 25.0 | 0.00 | 0.00 | 0.00 | 100 | 893.6 |
| 20260506174941 | 59 | 207 | 15.0 | 26.0 | 0.00 | 0.00 | 0.00 | 100 | 893.6 |
| 20260506174937 | 59 | 207 | 15.0 | 26.0 | 0.00 | 0.00 | 0.00 | 100 | 893.7 |
| 20260506174837 | 59 | 208 | 14.0 | 26.0 | 0.00 | 0.00 | 0.00 | 100 | 893.7 |
| 20260506174724 | 59 | 206 | 14.0 | 25.0 | 0.00 | 0.00 | 0.00 | 100 | 893.7 |
| 20260506174523 | 59 | 208 | 15.0 | 26.0 | 0.00 | 0.00 | 0.00 | 100 | 893.7 |
| 20260506174323 | 59 | 212 | 17.0 | 34.0 | 0.00 | 0.00 | 0.00 | 100 | 893.5 |
| 20260506174122 | 59 | 215 | 17.0 | 34.0 | 0.00 | 0.00 | 0.00 | 100 | 893.6 |
| 20260506173921 | 59 | 214 | 16.0 | 26.0 | 0.00 | 0.00 | 0.00 | 100 | 893.7 |
| 20260506173822 | 59 | 213 | 16.0 | 29.0 | 0.00 | 0.00 | 0.00 | 100 | 893.5 |
| 20260506173720 | 59 | 208 | 16.0 | 31.0 | 0.00 | 0.00 | 0.00 | 100 | 893.5 |
| 20260506173519 | 59 | 211 | 19.0 | 31.0 | 0.00 | 0.00 | 0.00 | 100 | 893.4 |
| 20260506173317 | 59 | 217 | 17.0 | 29.0 | 0.00 | 0.00 | 0.00 | 100 | 893.5 |
| 20260506173116 | 59 | 218 | 15.0 | 29.0 | 0.00 | 0.00 | 0.00 | 100 | 893.6 |
| 20260506172915 | 59 | 218 | 14.0 | 29.0 | 0.00 | 0.00 | 0.00 | 100 | 893.6 |
| 20260506172816 | 59 | 211 | 14.0 | 27.0 | 0.00 | 0.00 | 0.00 | 100 | 893.7 |
| 20260506172714 | 59 | 215 | 16.0 | 28.0 | 0.00 | 0.00 | 0.00 | 100 | 893.7 |
| 20260506172514 | 59 | 211 | 18.0 | 28.0 | 0.00 | 0.00 | 0.00 | 100 | 893.5 |
| 20260506172313 | 59 | 210 | 18.0 | 30.0 | 0.00 | 0.00 | 0.00 | 100 | 893.6 |
| 20260506172115 | 59 | 213 | 18.0 | 30.0 | 0.00 | 0.00 | 0.00 | 100 | 893.6 |
| 20260506172112 | 59 | 213 | 18.0 | 30.0 | 0.00 | 0.00 | 0.00 | 100 | 893.5 |
| 20260506171911 | 59 | 219 | 18.0 | 30.0 | 0.00 | 0.00 | 0.00 | 100 | 893.6 |
| 20260506171812 | 59 | 220 | 18.0 | 30.0 | 0.00 | 0.00 | 0.00 | 100 | 893.6 |
| 20260506171710 | 59 | 218 | 18.0 | 28.0 | 0.00 | 0.00 | 0.00 | 100 | 893.5 |
| 20260506171510 | 59 | 215 | 18.0 | 31.0 | 0.00 | 0.00 | 0.00 | 100 | 893.6 |
| 20260506171309 | 59 | 216 | 17.0 | 31.0 | 0.00 | 0.00 | 0.00 | 100 | 893.5 |
| 20260506171108 | 59 | 217 | 15.0 | 28.0 | 0.00 | 0.00 | 0.00 | 100 | 893.6 |
| 20260506170907 | 59 | 219 | 16.0 | 26.0 | 0.00 | 0.00 | 0.00 | 100 | 893.7 |
| 20260506170807 | 59 | 216 | 17.0 | 27.0 | 0.00 | 0.00 | 0.00 | 100 | 893.7 |
| 20260506170606 | 59 | 219 | 17.0 | 29.0 | 0.00 | 0.00 | 0.00 | 100 | 893.6 |
| 20260506170453 | 59 | 220 | 18.0 | 30.0 | 0.00 | 0.00 | 0.00 | 100 | 893.7 |
| 20260506170249 | 59 | 226 | 19.0 | 32.0 | 0.00 | 0.00 | 0.00 | 100 | 893.6 |
| 20260506170043 | 59 | 224 | 18.0 | 32.0 | 0.00 | 0.00 | 0.00 | 100 | 893.6 |
| 20260506165839 | 59 | 213 | 16.0 | 35.0 | 0.00 | 0.00 | 0.00 | 100 | 893.8 |
| 20260506165738 | 59 | 209 | 16.0 | 35.0 | 0.00 | 0.00 | 0.00 | 100 | 893.8 |
| 20260506165635 | 59 | 212 | 16.0 | 35.0 | 0.00 | 0.00 | 0.00 | 100 | 893.7 |
| 20260506165432 | 60 | 213 | 17.0 | 25.0 | 0.00 | 0.00 | 0.00 | 100 | 893.9 |
| 20260506165227 | 60 | 211 | 17.0 | 31.0 | 0.00 | 0.00 | 0.00 | 100 | 893.9 |
| 20260506165026 | 59 | 212 | 18.0 | 33.0 | 0.00 | 0.00 | 0.00 | 100 | 893.8 |
| 20260506164928 | 60 | 212 | 17.0 | 33.0 | 0.00 | 0.00 | 0.00 | 100 | 893.8 |
| 20260506164825 | 60 | 208 | 18.0 | 33.0 | 0.00 | 0.00 | 0.00 | 100 | 893.8 |
| 20260506164725 | 60 | 209 | 18.0 | 30.0 | 0.00 | 0.00 | 0.00 | 100 | 893.7 |
| 20260506164621 | 59 | 212 | 19.0 | 30.0 | 0.00 | 0.00 | 0.00 | 100 | 893.7 |
| 20260506164526 | 59 | 214 | 19.0 | 30.0 | 0.00 | 0.00 | 0.00 | 100 | 893.7 |
| 20260506164420 | 59 | 223 | 19.0 | 30.0 | 0.00 | 0.00 | 0.00 | 100 | 893.6 |
| 20260506164328 | 59 | 221 | 17.0 | 30.0 | 0.00 | 0.00 | 0.00 | 100 | 893.7 |
| 20260506164219 | 59 | 214 | 16.0 | 30.0 | 0.00 | 0.00 | 0.00 | 100 | 893.9 |
| 20260506164124 | 60 | 209 | 16.0 | 30.0 | 0.00 | 0.00 | 0.00 | 100 | 893.8 |
| 20260506164019 | 60 | 207 | 16.0 | 30.0 | 0.00 | 0.00 | 0.00 | 100 | 893.9 |
| 20260506163923 | 60 | 205 | 16.0 | 29.0 | 0.00 | 0.00 | 0.00 | 100 | 893.9 |
| 20260506163818 | 60 | 205 | 17.0 | 29.0 | 0.00 | 0.00 | 0.00 | 100 | 894.0 |
| 20260506163718 | 60 | 204 | 19.0 | 29.0 | 0.00 | 0.00 | 0.00 | 100 | 893.8 |
| 20260506163617 | 60 | 206 | 18.0 | 28.0 | 0.00 | 0.00 | 0.00 | 100 | 893.7 |
| 20260506163521 | 60 | 206 | 18.0 | 28.0 | 0.00 | 0.00 | 0.00 | 100 | 893.6 |
| 20260506163416 | 60 | 209 | 18.0 | 28.0 | 0.00 | 0.00 | 0.00 | 100 | 893.7 |
| 20260506163321 | 60 | 211 | 18.0 | 33.0 | 0.00 | 0.00 | 0.00 | 100 | 893.7 |
| 20260506163215 | 59 | 209 | 19.0 | 33.0 | 0.00 | 0.00 | 0.00 | 100 | 893.6 |
| 20260506163120 | 59 | 209 | 20.0 | 33.0 | 0.00 | 0.00 | 0.00 | 100 | 893.6 |
| 20260506163013 | 60 | 208 | 20.0 | 33.0 | 0.00 | 0.00 | 0.00 | 100 | 893.6 |
| 20260506162917 | 60 | 210 | 19.0 | 30.0 | 0.00 | 0.00 | 0.00 | 100 | 893.6 |
| 20260506162812 | 60 | 215 | 18.0 | 29.0 | 0.00 | 0.00 | 0.00 | 100 | 893.7 |
| 20260506162712 | 60 | 215 | 17.0 | 28.0 | 0.00 | 0.00 | 0.00 | 100 | 893.9 |
| 20260506162610 | 60 | 223 | 16.0 | 28.0 | 0.00 | 0.00 | 0.00 | 100 | 894.0 |
| 20260506162514 | 60 | 223 | 16.0 | 28.0 | 0.00 | 0.00 | 0.00 | 100 | 894.0 |
| 20260506162408 | 60 | 218 | 16.0 | 28.0 | 0.00 | 0.00 | 0.00 | 100 | 894.0 |
| 20260506162313 | 60 | 222 | 18.0 | 31.0 | 0.00 | 0.00 | 0.00 | 100 | 893.9 |
| 20260506162207 | 60 | 218 | 18.0 | 31.0 | 0.00 | 0.00 | 0.00 | 100 | 893.9 |
| 20260506162112 | 60 | 219 | 19.0 | 31.0 | 0.00 | 0.00 | 0.00 | 100 | 893.9 |
| 20260506162007 | 60 | 223 | 19.0 | 31.0 | 0.00 | 0.00 | 0.00 | 100 | 893.8 |
| 20260506161912 | 60 | 223 | 19.0 | 31.0 | 0.00 | 0.00 | 0.00 | 100 | 894.1 |
| 20260506161807 | 60 | 223 | 18.0 | 30.0 | 0.00 | 0.00 | 0.00 | 100 | 894.2 |
| 20260506161707 | 60 | 219 | 18.0 | 30.0 | 0.00 | 0.00 | 0.00 | 100 | 894.1 |
| 20260506161606 | 60 | 219 | 18.0 | 30.0 | 0.00 | 0.00 | 0.00 | 100 | 894.0 |
| 20260506161511 | 60 | 212 | 18.0 | 31.0 | 0.00 | 0.00 | 0.00 | 100 | 894.0 |
| 20260506161406 | 60 | 212 | 18.0 | 31.0 | 0.00 | 0.00 | 0.00 | 100 | 893.9 |
| 20260506161311 | 60 | 212 | 18.0 | 31.0 | 0.00 | 0.00 | 0.00 | 100 | 893.9 |
| 20260506161205 | 60 | 212 | 17.0 | 31.0 | 0.00 | 0.00 | 0.00 | 100 | 893.9 |
| 20260506161109 | 60 | 215 | 17.0 | 31.0 | 0.00 | 0.00 | 0.00 | 100 | 894.1 |
| 20260506161004 | 60 | 221 | 16.0 | 27.0 | 0.00 | 0.00 | 0.00 | 100 | 894.1 |
| 20260506160908 | 60 | 223 | 17.0 | 28.0 | 0.00 | 0.00 | 0.00 | 100 | 894.0 |
| 20260506160804 | 60 | 222 | 18.0 | 28.0 | 0.00 | 0.00 | 0.00 | 100 | 893.9 |
| 20260506160704 | 60 | 220 | 18.0 | 32.0 | 0.00 | 0.00 | 0.00 | 100 | 893.9 |
| 20260506160602 | 60 | 220 | 19.0 | 32.0 | 0.00 | 0.00 | 0.00 | 100 | 893.8 |
| 20260506160506 | 60 | 220 | 18.0 | 32.0 | 0.00 | 0.00 | 0.00 | 100 | 893.8 |
| 20260506160401 | 60 | 221 | 19.0 | 32.0 | 0.00 | 0.00 | 0.00 | 100 | 893.9 |
| 20260506160304 | 60 | 220 | 20.0 | 32.0 | 0.00 | 0.00 | 0.00 | 100 | 893.7 |
| 20260506160200 | 60 | 223 | 20.0 | 32.0 | 0.00 | 0.00 | 0.00 | 100 | 893.7 |
| 20260506160104 | 60 | 222 | 20.0 | 32.0 | 0.00 | 0.00 | 0.00 | 100 | 893.7 |
| 20260506155958 | 60 | 219 | 20.0 | 31.0 | 0.00 | 0.00 | 0.00 | 100 | 893.9 |
| 20260506155903 | 60 | 216 | 19.0 | 31.0 | 0.00 | 0.00 | 0.00 | 100 | 893.9 |
| 20260506155756 | 61 | 214 | 18.0 | 31.0 | 0.00 | 0.00 | 0.00 | 100 | 893.8 |
| 20260506155655 | 61 | 213 | 18.0 | 31.0 | 0.00 | 0.00 | 0.00 | 100 | 893.8 |
| 20260506155520 | 61 | 216 | 18.0 | 30.0 | 0.00 | 0.00 | 0.00 | 100 | 893.7 |
| 20260506155318 | 61 | 210 | 20.0 | 32.0 | 0.00 | 0.00 | 0.00 | 100 | 893.8 |
| 20260506155117 | 61 | 206 | 20.0 | 32.0 | 0.00 | 0.00 | 0.00 | 100 | 893.8 |
| 20260506155016 | 61 | 210 | 20.0 | 32.0 | 0.00 | 0.00 | 0.00 | 100 | 893.9 |
| 20260506154853 | 61 | 213 | 19.0 | 29.0 | 0.00 | 0.00 | 0.00 | 100 | 893.8 |
| 20260506154647 | 61 | 226 | 18.0 | 29.0 | 0.00 | 0.00 | 0.00 | 100 | 893.7 |
| 20260506154443 | 61 | 232 | 15.0 | 23.0 | 0.00 | 0.00 | 0.00 | 100 | 893.6 |
| 20260506154342 | 61 | 238 | 13.0 | 23.0 | 0.00 | 0.00 | 0.00 | 100 | 893.9 |
| 20260506154239 | 61 | 236 | 12.0 | 20.0 | 0.00 | 0.00 | 0.00 | 100 | 894.0 |
| 20260506154035 | 62 | 216 | 12.0 | 20.0 | 0.00 | 0.00 | 0.00 | 100 | 894.0 |
| 20260506153832 | 62 | 211 | 13.0 | 20.0 | 0.00 | 0.00 | 0.00 | 100 | 894.3 |
| 20260506153630 | 62 | 224 | 14.0 | 24.0 | 0.00 | 0.00 | 0.00 | 100 | 894.6 |
| 20260506153429 | 61 | 210 | 14.0 | 24.0 | 0.00 | 0.00 | 0.00 | 100 | 894.7 |
| 20260506153330 | 61 | 209 | 13.0 | 24.0 | 0.00 | 0.00 | 0.00 | 100 | 894.8 |
| 20260506153228 | 62 | 205 | 12.0 | 22.0 | 0.00 | 0.00 | 0.00 | 100 | 895.1 |
| 20260506153028 | 61 | 204 | 14.0 | 23.0 | 0.00 | 0.00 | 0.00 | 100 | 894.5 |
| 20260506152827 | 61 | 209 | 14.0 | 23.0 | 0.00 | 0.00 | 0.00 | 100 | 894.3 |
| 20260506152616 | 62 | 228 | 12.0 | 18.0 | 0.00 | 0.00 | 0.00 | 100 | 894.9 |
| 20260506152415 | 61 | 226 | 13.0 | 22.0 | 0.00 | 0.00 | 0.00 | 100 | 894.9 |
| 20260506152315 | 61 | 226 | 14.0 | 22.0 | 0.00 | 0.00 | 0.00 | 100 | 894.8 |
| 20260506152214 | 60 | 221 | 16.0 | 24.0 | 0.00 | 0.00 | 0.00 | 100 | 894.8 |
| 20260506152014 | 60 | 229 | 17.0 | 24.0 | 0.00 | 0.00 | 0.00 | 100 | 894.3 |
| 20260506151813 | 60 | 219 | 15.0 | 22.0 | 0.00 | 0.00 | 0.00 | 100 | 894.3 |
| 20260506151612 | 61 | 202 | 13.0 | 21.0 | 0.00 | 0.00 | 0.00 | 100 | 894.4 |
| 20260506151411 | 60 | 208 | 13.0 | 22.0 | 0.00 | 0.00 | 0.00 | 100 | 894.3 |
| 20260506151209 | 61 | 225 | 14.0 | 22.0 | 0.00 | 0.00 | 0.00 | 100 | 894.5 |
| 20260506151009 | 61 | 228 | 14.0 | 22.0 | 0.00 | 0.00 | 0.00 | 100 | 894.4 |
| 20260506150808 | 61 | 230 | 13.0 | 21.0 | 0.00 | 0.00 | 0.00 | 100 | 894.6 |
| 20260506150605 | 61 | 233 | 14.0 | 20.0 | 0.00 | 0.00 | 0.00 | 100 | 894.6 |
| 20260506150436 | 61 | 233 | 14.0 | 20.0 | 0.00 | 0.00 | 0.00 | 100 | 894.5 |
| 20260506150405 | 61 | 233 | 14.0 | 20.0 | 0.00 | 0.00 | 0.00 | 100 | 894.5 |
| 20260506150305 | 61 | 233 | 14.0 | 20.0 | 0.00 | 0.00 | 0.00 | 100 | 894.6 |
| 20260506150205 | 61 | 212 | 13.0 | 21.0 | 0.00 | 0.00 | 0.00 | 100 | 894.8 |
| 20260506150004 | 61 | 203 | 14.0 | 24.0 | 0.00 | 0.00 | 0.00 | 100 | 894.7 |
| 20260506145802 | 61 | 205 | 14.0 | 31.0 | 0.00 | 0.00 | 0.00 | 100 | 894.7 |
| 20260506145601 | 61 | 220 | 15.0 | 31.0 | 0.00 | 0.00 | 0.00 | 100 | 894.6 |
| 20260506145400 | 61 | 226 | 16.0 | 26.0 | 0.00 | 0.00 | 0.00 | 100 | 894.3 |
| 20260506145300 | 61 | 216 | 16.0 | 26.0 | 0.00 | 0.00 | 0.00 | 100 | 894.4 |
| 20260506145159 | 61 | 215 | 16.0 | 26.0 | 0.00 | 0.00 | 0.00 | 100 | 894.4 |
| 20260506144958 | 61 | 217 | 16.0 | 27.0 | 0.00 | 0.00 | 0.00 | 100 | 894.4 |
| 20260506144757 | 61 | 220 | 16.0 | 27.0 | 0.00 | 0.00 | 0.00 | 100 | 894.6 |
| 20260506144556 | 61 | 220 | 16.0 | 25.0 | 0.00 | 0.00 | 0.00 | 100 | 894.5 |
| 20260506144355 | 61 | 230 | 17.0 | 31.0 | 0.00 | 0.00 | 0.00 | 100 | 894.5 |
| 20260506144255 | 61 | 231 | 18.0 | 31.0 | 0.00 | 0.00 | 0.00 | 100 | 894.4 |
| 20260506144155 | 61 | 231 | 18.0 | 31.0 | 0.00 | 0.00 | 0.00 | 100 | 894.3 |
| 20260506143953 | 62 | 210 | 18.0 | 28.0 | 0.00 | 0.00 | 0.00 | 100 | 894.5 |
| 20260506143757 | 61 | 201 | 17.0 | 28.0 | 0.00 | 0.00 | 0.00 | 100 | 894.5 |
| 20260506143753 | 61 | 201 | 17.0 | 28.0 | 0.00 | 0.00 | 0.00 | 100 | 894.2 |
| 20260506143553 | 62 | 210 | 16.0 | 26.0 | 0.00 | 0.00 | 0.00 | 100 | 894.3 |
| 20260506143352 | 62 | 223 | 16.0 | 26.0 | 0.00 | 0.00 | 0.00 | 100 | 894.5 |
| 20260506143252 | 62 | 235 | 16.0 | 26.0 | 0.00 | 0.00 | 0.00 | 100 | 894.4 |
| 20260506143151 | 62 | 238 | 15.0 | 24.0 | 0.00 | 0.00 | 0.00 | 100 | 894.6 |
| 20260506142950 | 62 | 230 | 15.0 | 31.0 | 0.00 | 0.00 | 0.00 | 100 | 894.5 |
| 20260506142750 | 62 | 230 | 17.0 | 33.0 | 0.00 | 0.00 | 0.00 | 100 | 894.3 |
| 20260506142549 | 62 | 238 | 16.0 | 33.0 | 0.00 | 0.00 | 0.00 | 100 | 894.3 |
| 20260506142347 | 62 | 240 | 14.0 | 26.0 | 0.00 | 0.00 | 0.00 | 100 | 894.8 |
| 20260506142247 | 62 | 238 | 14.0 | 27.0 | 0.00 | 0.00 | 0.00 | 100 | 894.7 |
| 20260506142146 | 62 | 242 | 14.0 | 27.0 | 0.00 | 0.00 | 0.00 | 100 | 894.8 |
| 20260506141945 | 62 | 239 | 14.0 | 27.0 | 0.00 | 0.00 | 0.00 | 100 | 894.7 |
| 20260506141744 | 62 | 242 | 14.0 | 22.0 | 0.00 | 0.00 | 0.00 | 100 | 894.4 |
| 20260506141543 | 62 | 247 | 14.0 | 21.0 | 0.00 | 0.00 | 0.00 | 100 | 894.3 |
| 20260506141342 | 62 | 248 | 14.0 | 23.0 | 0.00 | 0.00 | 0.00 | 100 | 894.4 |
| 20260506141243 | 62 | 248 | 13.0 | 23.0 | 0.00 | 0.00 | 0.00 | 100 | 894.6 |
| 20260506141142 | 62 | 243 | 15.0 | 25.0 | 0.00 | 0.00 | 0.00 | 100 | 894.6 |
| 20260506140941 | 62 | 240 | 16.0 | 25.0 | 0.00 | 0.00 | 0.00 | 100 | 895.5 |
| 20260506140739 | 62 | 243 | 18.0 | 28.0 | 0.00 | 0.00 | 0.00 | 100 | 894.7 |
| 20260506140535 | 61 | 248 | 19.0 | 32.0 | 0.00 | 0.00 | 0.00 | 100 | 894.0 |
| 20260506140333 | 62 | 244 | 18.0 | 32.0 | 0.00 | 0.00 | 0.00 | 100 | 893.6 |
| 20260506140234 | 62 | 241 | 15.0 | 24.0 | 0.00 | 0.00 | 0.00 | 100 | 893.8 |
| 20260506140133 | 62 | 235 | 13.0 | 24.0 | 0.00 | 0.00 | 0.00 | 100 | 893.8 |
| 20260506135931 | 62 | 222 | 11.0 | 22.0 | 0.00 | 0.00 | 0.00 | 100 | 894.2 |
| 20260506135731 | 62 | 226 | 13.0 | 25.0 | 0.00 | 0.00 | 0.00 | 100 | 894.7 |
| 20260506135529 | 62 | 231 | 16.0 | 29.0 | 0.00 | 0.00 | 0.00 | 100 | 894.9 |
| 20260506135328 | 62 | 237 | 18.0 | 29.0 | 0.00 | 0.00 | 0.00 | 100 | 894.1 |
| 20260506135228 | 63 | 237 | 16.0 | 27.0 | 0.00 | 0.00 | 0.00 | 100 | 893.5 |
| 20260506135125 | 63 | 234 | 15.0 | 27.0 | 0.00 | 0.00 | 0.00 | 100 | 893.8 |
| 20260506134922 | 63 | 239 | 16.0 | 30.0 | 0.00 | 0.00 | 0.00 | 100 | 893.8 |
| 20260506134720 | 63 | 241 | 18.0 | 28.0 | 0.00 | 0.00 | 0.00 | 100 | 893.6 |
| 20260506134519 | 64 | 243 | 18.0 | 30.0 | 0.00 | 0.00 | 0.00 | 100 | 894.4 |
| 20260506134318 | 64 | 247 | 16.0 | 30.0 | 0.00 | 0.00 | 0.00 | 100 | 894.0 |
| 20260506134219 | 64 | 247 | 15.0 | 30.0 | 0.00 | 0.00 | 0.00 | 100 | 894.7 |
| 20260506134117 | 65 | 241 | 16.0 | 27.0 | 0.00 | 0.00 | 0.00 | 100 | 895.1 |
| 20260506133917 | 64 | 241 | 16.0 | 27.0 | 0.00 | 0.00 | 0.00 | 100 | 894.9 |
| 20260506133716 | 64 | 247 | 14.0 | 27.0 | 0.00 | 0.00 | 0.00 | 100 | 894.6 |
| 20260506133515 | 63 | 251 | 14.0 | 26.0 | 0.00 | 0.00 | 0.00 | 100 | 894.8 |
| 20260506133314 | 63 | 246 | 17.0 | 28.0 | 0.00 | 0.00 | 0.00 | 100 | 894.4 |
| 20260506133214 | 62 | 247 | 16.0 | 28.0 | 0.00 | 0.00 | 0.00 | 100 | 894.4 |
| 20260506133112 | 64 | 248 | 15.0 | 28.0 | 0.00 | 0.00 | 0.00 | 100 | 894.5 |
| 20260506132912 | 64 | 248 | 15.0 | 25.0 | 0.00 | 0.00 | 0.00 | 100 | 894.9 |
| 20260506132710 | 63 | 242 | 19.0 | 28.0 | 0.00 | 0.00 | 0.00 | 100 | 894.2 |
| 20260506132509 | 63 | 248 | 19.0 | 28.0 | 0.00 | 0.00 | 0.00 | 100 | 894.1 |
| 20260506132309 | 63 | 249 | 17.0 | 27.0 | 0.00 | 0.00 | 0.00 | 100 | 894.1 |
| 20260506132208 | 63 | 249 | 14.0 | 27.0 | 0.00 | 0.00 | 0.00 | 100 | 894.3 |
| 20260506132107 | 64 | 243 | 13.0 | 27.0 | 0.00 | 0.00 | 0.00 | 100 | 894.9 |
| 20260506131906 | 64 | 241 | 13.0 | 26.0 | 0.00 | 0.00 | 0.00 | 100 | 894.8 |
| 20260506131705 | 63 | 243 | 14.0 | 26.0 | 0.00 | 0.00 | 0.00 | 100 | 894.2 |
| 20260506131508 | 63 | 240 | 12.0 | 25.0 | 0.00 | 0.00 | 0.00 | 100 | 894.6 |
| 20260506131324 | 64 | 240 | 11.0 | 25.0 | 0.00 | 0.00 | 0.00 | 100 | 894.5 |
| 20260506131203 | 64 | 240 | 11.0 | 25.0 | 0.00 | 0.00 | 0.00 | 100 | 895.4 |
| 20260506131106 | 64 | 233 | 11.0 | 22.0 | 0.00 | 0.00 | 0.00 | 100 | 895.1 |
| 20260506130915 | 64 | 242 | 12.0 | 22.0 | 0.00 | 0.00 | 0.00 | 100 | 895.2 |
| 20260506130701 | 63 | 242 | 13.0 | 22.0 | 0.00 | 0.00 | 0.00 | 100 | 894.6 |
| 20260506130503 | 63 | 232 | 16.0 | 26.0 | 0.00 | 0.00 | 0.00 | 100 | 894.4 |
| 20260506130302 | 63 | 210 | 14.0 | 23.0 | 0.00 | 0.00 | 0.00 | 100 | 894.3 |
| 20260506130158 | 63 | 221 | 13.0 | 20.0 | 0.00 | 0.00 | 0.00 | 100 | 894.5 |
| 20260506125645 | 63 | 247 | 14.0 | 26.0 | 0.00 | 0.00 | 0.00 | 100 | 894.9 |
| 20260506125143 | 63 | 220 | 17.0 | 30.0 | 0.00 | 0.00 | 0.00 | 100 | 894.4 |
| 20260506124640 | 63 | 237 | 15.0 | 29.0 | 0.00 | 0.00 | 0.00 | 100 | 895.1 |
| 20260506124138 | 63 | 199 | 15.0 | 34.0 | 0.00 | 0.00 | 0.00 | 100 | 895.6 |
| 20260506123636 | 62 | 226 | 16.0 | 26.0 | 0.00 | 0.00 | 0.00 | 100 | 895.2 |
| 20260506123133 | 61 | 228 | 16.0 | 32.0 | 0.00 | 0.00 | 0.00 | 100 | 894.9 |
| 20260506122632 | 62 | 231 | 15.0 | 22.0 | 0.00 | 0.00 | 0.00 | 100 | 895.2 |
| 20260506122232 | 61 | 241 | 15.0 | 27.0 | 0.00 | 0.00 | 0.00 | 100 | 895.1 |
| 20260506122127 | 61 | 243 | 15.0 | 27.0 | 0.00 | 0.00 | 0.00 | 100 | 894.9 |
| 20260506122014 | 62 | 246 | 16.0 | 30.0 | 0.00 | 0.00 | 0.00 | 100 | 894.6 |
| 20260506121812 | 61 | 246 | 18.0 | 29.0 | 0.00 | 0.00 | 0.00 | 100 | 894.5 |
| 20260506121611 | 62 | 248 | 15.0 | 29.0 | 0.00 | 0.00 | 0.00 | 100 | 894.7 |
| 20260506121511 | 62 | 246 | 15.0 | 29.0 | 0.00 | 0.00 | 0.00 | 100 | 894.7 |
| 20260506121408 | 62 | 241 | 13.0 | 29.0 | 0.00 | 0.00 | 0.00 | 100 | 894.6 |
| 20260506121205 | 62 | 237 | 18.0 | 28.0 | 0.00 | 0.00 | 0.00 | 100 | 894.2 |
| 20260506121001 | 62 | 244 | 18.0 | 28.0 | 0.00 | 0.00 | 0.00 | 100 | 894.1 |
| 20260506120757 | 62 | 250 | 16.0 | 26.0 | 0.00 | 0.00 | 0.00 | 100 | 894.8 |
| 20260506120556 | 62 | 248 | 16.0 | 26.0 | 0.00 | 0.00 | 0.00 | 100 | 894.5 |
| 20260506120455 | 62 | 247 | 16.0 | 26.0 | 0.00 | 0.00 | 0.00 | 100 | 894.6 |
| 20260506120354 | 62 | 243 | 16.0 | 24.0 | 0.00 | 0.00 | 0.00 | 100 | 894.6 |
| 20260506120153 | 62 | 242 | 15.0 | 24.0 | 0.00 | 0.00 | 0.00 | 100 | 894.7 |
| 20260506115952 | 62 | 239 | 17.0 | 25.0 | 0.00 | 0.00 | 0.00 | 100 | 894.8 |
| 20260506115751 | 62 | 239 | 17.0 | 26.0 | 0.00 | 0.00 | 0.00 | 100 | 894.4 |
| 20260506115550 | 62 | 247 | 12.0 | 26.0 | 0.00 | 0.00 | 0.00 | 100 | 894.8 |
| 20260506115450 | 62 | 252 | 12.0 | 22.0 | 0.00 | 0.00 | 0.00 | 100 | 894.6 |
| 20260506115348 | 62 | 248 | 12.0 | 22.0 | 0.00 | 0.00 | 0.00 | 100 | 894.8 |
| 20260506115148 | 62 | 223 | 11.0 | 19.0 | 0.00 | 0.00 | 0.00 | 100 | 894.8 |
| 20260506114945 | 62 | 204 | 8.0 | 18.0 | 0.00 | 0.00 | 0.00 | 100 | 895.1 |
| 20260506114742 | 62 | 216 | 7.0 | 14.0 | 0.00 | 0.00 | 0.00 | 100 | 895.6 |
| 20260506114541 | 62 | 235 | 12.0 | 20.0 | 0.00 | 0.00 | 0.00 | 100 | 895.3 |
| 20260506114442 | 62 | 235 | 12.0 | 20.0 | 0.00 | 0.00 | 0.00 | 100 | 894.9 |
| 20260506114340 | 62 | 223 | 12.0 | 21.0 | 0.00 | 0.00 | 0.00 | 100 | 894.9 |
| 20260506114139 | 62 | 212 | 12.0 | 21.0 | 0.00 | 0.00 | 0.00 | 100 | 894.8 |
| 20260506113938 | 62 | 222 | 14.0 | 30.0 | 0.00 | 0.00 | 0.00 | 100 | 895.1 |
| 20260506113738 | 63 | 234 | 16.0 | 30.0 | 0.00 | 0.00 | 0.00 | 100 | 894.8 |
| 20260506113537 | 62 | 239 | 17.0 | 27.0 | 0.00 | 0.00 | 0.00 | 100 | 894.7 |
| 20260506113438 | 62 | 241 | 14.0 | 27.0 | 0.00 | 0.00 | 0.00 | 100 | 894.7 |
| 20260506113337 | 62 | 244 | 12.0 | 27.0 | 0.00 | 0.00 | 0.00 | 100 | 895.2 |
| 20260506113135 | 62 | 255 | 9.0 | 24.0 | 0.00 | 0.00 | 0.00 | 100 | 895.9 |
| 20260506112934 | 62 | 238 | 12.0 | 24.0 | 0.00 | 0.00 | 0.00 | 100 | 895.5 |
| 20260506112726 | 61 | 220 | 14.0 | 30.0 | 0.00 | 0.00 | 0.00 | 100 | 894.9 |
| 20260506112523 | 61 | 231 | 14.0 | 30.0 | 0.00 | 0.00 | 0.00 | 100 | 895.1 |
| 20260506112423 | 62 | 240 | 15.0 | 30.0 | 0.00 | 0.00 | 0.00 | 100 | 895.1 |
| 20260506112322 | 60 | 241 | 16.0 | 26.0 | 0.00 | 0.00 | 0.00 | 100 | 895.4 |
| 20260506112123 | 61 | 243 | 16.0 | 26.0 | 0.00 | 0.00 | 0.00 | 100 | 895.1 |
| 20260506111921 | 60 | 242 | 16.0 | 26.0 | 0.00 | 0.00 | 0.00 | 100 | 895.2 |
| 20260506111721 | 61 | 240 | 14.0 | 26.0 | 0.00 | 0.00 | 0.00 | 100 | 894.7 |
| 20260506111520 | 61 | 237 | 17.0 | 28.0 | 0.00 | 0.00 | 0.00 | 100 | 894.7 |
| 20260506111418 | 61 | 233 | 19.0 | 28.0 | 0.00 | 0.00 | 0.00 | 100 | 895.1 |
| 20260506111242 | 61 | 236 | 18.0 | 29.0 | 0.00 | 0.00 | 0.00 | 100 | 894.6 |
| 20260506110739 | 61 | 207 | 13.0 | 24.0 | 0.00 | 0.00 | 0.00 | 100 | 895.1 |
| 20260506110506 | 61 | 218 | 14.0 | 23.0 | 0.00 | 0.00 | 0.00 | 100 | 895.4 |
| 20260506110300 | 61 | 217 | 14.0 | 23.0 | 0.00 | 0.00 | 0.00 | 100 | 894.9 |
| 20260506105901 | 60 | 210 | 13.0 | 25.0 | 0.00 | 0.00 | 0.00 | 100 | 895.3 |
| 20260506105759 | 60 | 211 | 13.0 | 25.0 | 0.00 | 0.00 | 0.00 | 100 | 895.3 |
| 20260506105701 | 60 | 208 | 14.0 | 25.0 | 0.00 | 0.00 | 0.00 | 100 | 895.1 |
| 20260506105517 | 60 | 205 | 13.0 | 22.0 | 0.00 | 0.00 | 0.00 | 100 | 894.6 |
| 20260506105258 | 60 | 209 | 12.0 | 23.0 | 0.00 | 0.00 | 0.00 | 100 | 894.5 |
| 20260506105100 | 61 | 232 | 12.0 | 23.0 | 0.00 | 0.00 | 0.00 | 100 | 895.4 |
| 20260506104901 | 61 | 239 | 12.0 | 19.0 | 0.00 | 0.00 | 0.00 | 100 | 895.5 |
| 20260506104756 | 61 | 235 | 12.0 | 20.0 | 0.00 | 0.00 | 0.00 | 100 | 895.2 |
| 20260506104659 | 61 | 230 | 12.0 | 20.0 | 0.00 | 0.00 | 0.00 | 100 | 894.9 |
| 20260506104456 | 61 | 222 | 12.0 | 20.0 | 0.00 | 0.00 | 0.00 | 100 | 895.2 |
| 20260506104253 | 60 | 227 | 14.0 | 26.0 | 0.00 | 0.00 | 0.00 | 100 | 895.0 |
| 20260506104055 | 60 | 225 | 16.0 | 28.0 | 0.00 | 0.00 | 0.00 | 100 | 894.9 |
| 20260506103855 | 60 | 225 | 16.0 | 28.0 | 0.00 | 0.00 | 0.00 | 100 | 895.0 |
| 20260506103752 | 61 | 224 | 16.0 | 28.0 | 0.00 | 0.00 | 0.00 | 100 | 894.9 |
| 20260506103656 | 60 | 225 | 16.0 | 28.0 | 0.00 | 0.00 | 0.00 | 100 | 895.2 |
| 20260506103529 | 60 | 213 | 15.0 | 24.0 | 0.00 | 0.00 | 0.00 | 100 | 895.1 |
| 20260506103251 | 61 | 203 | 15.0 | 25.0 | 0.00 | 0.00 | 0.00 | 100 | 895.3 |
| 20260506103053 | 60 | 200 | 14.0 | 25.0 | 0.00 | 0.00 | 0.00 | 100 | 895.4 |
| 20260506102850 | 60 | 202 | 15.0 | 24.0 | 0.00 | 0.00 | 0.00 | 100 | 895.1 |
| 20260506102747 | 60 | 205 | 16.0 | 24.0 | 0.00 | 0.00 | 0.00 | 100 | 895.1 |
| 20260506102648 | 60 | 206 | 15.0 | 23.0 | 0.00 | 0.00 | 0.00 | 100 | 895.1 |
| 20260506102447 | 60 | 209 | 15.0 | 22.0 | 0.00 | 0.00 | 0.00 | 100 | 895.3 |
| 20260506102245 | 60 | 214 | 16.0 | 24.0 | 0.00 | 0.00 | 0.00 | 100 | 895.3 |
| 20260506102044 | 60 | 216 | 17.0 | 29.0 | 0.00 | 0.00 | 0.00 | 100 | 895.3 |
| 20260506101843 | 60 | 219 | 18.0 | 29.0 | 0.00 | 0.00 | 0.00 | 100 | 895.2 |
| 20260506101741 | 59 | 223 | 18.0 | 29.0 | 0.00 | 0.00 | 0.00 | 100 | 895.0 |
| 20260506101643 | 59 | 226 | 18.0 | 28.0 | 0.00 | 0.00 | 0.00 | 100 | 894.9 |
| 20260506101441 | 59 | 228 | 18.0 | 28.0 | 0.00 | 0.00 | 0.00 | 100 | 894.9 |
| 20260506101238 | 59 | 226 | 18.0 | 28.0 | 0.00 | 0.00 | 0.00 | 100 | 895.0 |
| 20260506100935 | 60 | 223 | 17.0 | 28.0 | 0.00 | 0.00 | 0.00 | 100 | 895.3 |
| 20260506100752 | 59 | 219 | 19.0 | 32.0 | 0.00 | 0.00 | 0.00 | 100 | 895.3 |
| 20260506100731 | 58 | 219 | 19.0 | 32.0 | 0.00 | 0.00 | 0.00 | 100 | 895.0 |
| 20260506100603 | 58 | 222 | 17.0 | 32.0 | 0.00 | 0.00 | 0.00 | 100 | 895.1 |
| 20260506100530 | 58 | 222 | 17.0 | 32.0 | 0.00 | 0.00 | 0.00 | 100 | 895.1 |
| 20260506100329 | 60 | 239 | 14.0 | 24.0 | 0.00 | 0.00 | 0.00 | 100 | 895.9 |
| 20260506100230 | 59 | 239 | 14.0 | 22.0 | 0.00 | 0.00 | 0.00 | 100 | 896.0 |
| 20260506100128 | 59 | 238 | 15.0 | 23.0 | 0.00 | 0.00 | 0.00 | 100 | 895.9 |
| 20260506095927 | 58 | 231 | 17.0 | 25.0 | 0.00 | 0.00 | 0.00 | 100 | 895.7 |
| 20260506095726 | 58 | 228 | 19.0 | 32.0 | 0.00 | 0.00 | 0.00 | 100 | 895.4 |
| 20260506095526 | 58 | 227 | 19.0 | 32.0 | 0.00 | 0.00 | 0.00 | 100 | 895.2 |
| 20260506095325 | 58 | 231 | 18.0 | 28.0 | 0.00 | 0.00 | 0.00 | 100 | 894.6 |
| 20260506095225 | 58 | 231 | 17.0 | 27.0 | 0.00 | 0.00 | 0.00 | 100 | 894.8 |
| 20260506095124 | 58 | 234 | 17.0 | 27.0 | 0.00 | 0.00 | 0.00 | 100 | 894.8 |
| 20260506094922 | 58 | 232 | 16.0 | 28.0 | 0.00 | 0.00 | 0.00 | 100 | 894.7 |
| 20260506094721 | 58 | 224 | 16.0 | 29.0 | 0.00 | 0.00 | 0.00 | 100 | 894.5 |
| 20260506094521 | 58 | 224 | 16.0 | 29.0 | 0.00 | 0.00 | 0.00 | 100 | 894.3 |
| 20260506094320 | 58 | 216 | 16.0 | 25.0 | 0.00 | 0.00 | 0.00 | 100 | 894.2 |
| 20260506094218 | 58 | 216 | 16.0 | 24.0 | 0.00 | 0.00 | 0.00 | 100 | 894.2 |
| 20260506093900 | 58 | 219 | 16.0 | 26.0 | 0.00 | 0.00 | 0.00 | 100 | 894.8 |
| 20260506093654 | 59 | 212 | 15.0 | 25.0 | 0.00 | 0.00 | 0.00 | 100 | 894.9 |
| 20260506093450 | 59 | 232 | 15.0 | 29.0 | 0.00 | 0.00 | 0.00 | 100 | 895.0 |
| 20260506093247 | 58 | 232 | 15.0 | 29.0 | 0.00 | 0.00 | 0.00 | 100 | 894.7 |
| 20260506093145 | 58 | 213 | 14.0 | 26.0 | 0.00 | 0.00 | 0.00 | 100 | 895.1 |
| 20260506093041 | 59 | 213 | 14.0 | 23.0 | 0.00 | 0.00 | 0.00 | 100 | 895.1 |
| 20260506092840 | 58 | 213 | 14.0 | 25.0 | 0.00 | 0.00 | 0.00 | 100 | 895.0 |
| 20260506092639 | 58 | 222 | 14.0 | 25.0 | 0.00 | 0.00 | 0.00 | 100 | 895.0 |
| 20260506092438 | 58 | 226 | 13.0 | 25.0 | 0.00 | 0.00 | 0.00 | 100 | 895.1 |
| 20260506092238 | 58 | 243 | 13.0 | 21.0 | 0.00 | 0.00 | 0.00 | 100 | 895.4 |
| 20260506092138 | 57 | 243 | 14.0 | 22.0 | 0.00 | 0.00 | 0.00 | 100 | 895.2 |
| 20260506092036 | 57 | 235 | 15.0 | 23.0 | 0.00 | 0.00 | 0.00 | 100 | 894.9 |
| 20260506091835 | 57 | 225 | 14.0 | 23.0 | 0.00 | 0.00 | 0.00 | 100 | 895.1 |
| 20260506091635 | 57 | 221 | 13.0 | 22.0 | 0.00 | 0.00 | 0.00 | 100 | 895.4 |
| 20260506091433 | 57 | 205 | 14.0 | 23.0 | 0.00 | 0.00 | 0.00 | 100 | 895.2 |
| 20260506091232 | 57 | 205 | 13.0 | 23.0 | 0.00 | 0.00 | 0.00 | 100 | 894.9 |
| 20260506091131 | 57 | 210 | 13.0 | 22.0 | 0.00 | 0.00 | 0.00 | 100 | 894.9 |
| 20260506091019 | 57 | 216 | 14.0 | 20.0 | 0.00 | 0.00 | 0.00 | 100 | 895.0 |
| 20260506090819 | 57 | 222 | 15.0 | 20.0 | 0.00 | 0.00 | 0.00 | 100 | 894.7 |
| 20260506090618 | 56 | 218 | 16.0 | 25.0 | 0.00 | 0.00 | 0.00 | 100 | 894.6 |
| 20260506090416 | 56 | 231 | 17.0 | 29.0 | 0.00 | 0.00 | 0.00 | 100 | 894.3 |
| 20260506090215 | 56 | 236 | 18.0 | 29.0 | 0.00 | 0.00 | 0.00 | 100 | 894.2 |
| 20260506090115 | 57 | 236 | 18.0 | 29.0 | 0.00 | 0.00 | 0.00 | 100 | 894.7 |
| 20260506090050 | 57 | 234 | 18.0 | 30.0 | 0.00 | 0.00 | 0.00 | 100 | 894.7 |
| 20260506090014 | 57 | 234 | 18.0 | 30.0 | 0.00 | 0.00 | 0.00 | 100 | 894.7 |
| 20260506085814 | 57 | 231 | 17.0 | 30.0 | 0.00 | 0.00 | 0.00 | 100 | 894.4 |
| 20260506085613 | 57 | 218 | 17.0 | 26.0 | 0.00 | 0.00 | 0.00 | 100 | 894.6 |
| 20260506085410 | 56 | 224 | 18.0 | 29.0 | 0.00 | 0.00 | 0.00 | 100 | 894.2 |
| 20260506085206 | 57 | 237 | 16.0 | 29.0 | 0.00 | 0.00 | 0.00 | 100 | 894.4 |
| 20260506085106 | 57 | 238 | 15.0 | 22.0 | 0.00 | 0.00 | 0.00 | 100 | 894.9 |
| 20260506085005 | 57 | 239 | 16.0 | 27.0 | 0.00 | 0.00 | 0.00 | 100 | 894.7 |
| 20260506084804 | 56 | 237 | 17.0 | 27.0 | 0.00 | 0.00 | 0.00 | 100 | 894.5 |
| 20260506084607 | 57 | 226 | 16.0 | 27.0 | 0.00 | 0.00 | 0.00 | 100 | 894.5 |
| 20260506084602 | 57 | 226 | 16.0 | 27.0 | 0.00 | 0.00 | 0.00 | 100 | 894.6 |
| 20260506084401 | 56 | 220 | 15.0 | 23.0 | 0.00 | 0.00 | 0.00 | 100 | 894.8 |
| 20260506084200 | 57 | 228 | 16.0 | 23.0 | 0.00 | 0.00 | 0.00 | 100 | 894.6 |
| 20260506084101 | 57 | 233 | 16.0 | 27.0 | 0.00 | 0.00 | 0.00 | 100 | 894.6 |
| 20260506084000 | 56 | 231 | 18.0 | 28.0 | 0.00 | 0.00 | 0.00 | 100 | 894.7 |
| 20260506083759 | 56 | 227 | 19.0 | 28.0 | 0.00 | 0.00 | 0.00 | 100 | 894.2 |
| 20260506083558 | 56 | 229 | 18.0 | 26.0 | 0.00 | 0.00 | 0.00 | 100 | 894.4 |
| 20260506083357 | 56 | 234 | 18.0 | 26.0 | 0.00 | 0.00 | 0.00 | 100 | 894.1 |
| 20260506083155 | 55 | 233 | 18.0 | 26.0 | 0.00 | 0.00 | 0.00 | 100 | 893.7 |
| 20260506083056 | 55 | 226 | 18.0 | 28.0 | 0.00 | 0.00 | 0.00 | 100 | 893.7 |
| 20260506082955 | 56 | 227 | 19.0 | 28.0 | 0.00 | 0.00 | 0.00 | 100 | 893.5 |
| 20260506082755 | 55 | 225 | 20.0 | 32.0 | 0.00 | 0.00 | 0.00 | 100 | 893.7 |
| 20260506082554 | 55 | 226 | 19.0 | 32.0 | 0.00 | 0.00 | 0.00 | 100 | 897.1 |
| 20260506082353 | 54 | 226 | 18.0 | 29.0 | 0.00 | 0.00 | 0.00 | 100 | 893.8 |
| 20260506082153 | 54 | 224 | 18.0 | 29.0 | 0.00 | 0.00 | 0.00 | 100 | 893.6 |
| 20260506082053 | 54 | 221 | 17.0 | 29.0 | 0.00 | 0.00 | 0.00 | 100 | 893.4 |
| 20260506081851 | 55 | 220 | 17.0 | 26.0 | 0.00 | 0.00 | 0.00 | 100 | 893.3 |
| 20260506081538 | 54 | 224 | 18.0 | 30.0 | 0.00 | 0.00 | 0.00 | 100 | 895.5 |
| 20260506081337 | 54 | 216 | 18.0 | 34.0 | 0.00 | 0.00 | 0.00 | 100 | 893.2 |
| 20260506081135 | 54 | 218 | 17.0 | 34.0 | 0.00 | 0.00 | 0.00 | 100 | 893.3 |
| 20260506081034 | 54 | 219 | 18.0 | 34.0 | 0.00 | 0.00 | 0.00 | 100 | 893.3 |
| 20260506080833 | 54 | 222 | 17.0 | 26.0 | 0.00 | 0.00 | 0.00 | 100 | 893.6 |
| 20260506080603 | 54 | 226 | 16.0 | 26.0 | 0.00 | 0.00 | 0.00 | 100 | 899.5 |
| 20260506080501 | 54 | 225 | 16.0 | 25.0 | 0.00 | 0.00 | 0.00 | 100 | 894.0 |
| 20260506080248 | 54 | 225 | 18.0 | 29.0 | 0.00 | 0.00 | 0.00 | 100 | 893.9 |
| 20260506080147 | 54 | 225 | 18.0 | 29.0 | 0.00 | 0.00 | 0.00 | 100 | 893.5 |
| 20260506073323 | 53 | 226 | 18.0 | 30.0 | 0.00 | 0.00 | 0.00 | 100 | 891.8 |
| 20260506073120 | 52 | 231 | 19.0 | 28.0 | 0.00 | 0.00 | 0.00 | 100 | 892.2 |
| 20260506073020 | 52 | 231 | 19.0 | 28.0 | 0.00 | 0.00 | 0.00 | 100 | 896.7 |
| 20260506072918 | 53 | 230 | 18.0 | 28.0 | 0.00 | 0.00 | 0.00 | 100 | 896.7 |
| 20260506072717 | 53 | 230 | 18.0 | 34.0 | 0.00 | 0.00 | 0.00 | 100 | 891.9 |
| 20260506072516 | 53 | 225 | 20.0 | 34.0 | 0.00 | 0.00 | 0.00 | 100 | 892.2 |
| 20260506072315 | 52 | 225 | 21.0 | 33.0 | 0.00 | 0.00 | 0.00 | 100 | 891.5 |
| 20260506072114 | 52 | 225 | 21.0 | 33.0 | 0.00 | 0.00 | 0.00 | 100 | 893.2 |
| 20260506072015 | 52 | 220 | 20.0 | 33.0 | 0.00 | 0.00 | 0.00 | 100 | 896.4 |
| 20260506071914 | 52 | 218 | 20.0 | 30.0 | 0.00 | 0.00 | 0.00 | 100 | 892.4 |
| 20260506071713 | 52 | 223 | 20.0 | 30.0 | 0.00 | 0.00 | 0.00 | 100 | 891.3 |
| 20260506071522 | 52 | 212 | 22.0 | 32.0 | 0.00 | 0.00 | 0.00 | 100 | 891.7 |
| 20260506071512 | 52 | 212 | 22.0 | 32.0 | 0.00 | 0.00 | 0.00 | 100 | 894.6 |
| 20260506071311 | 52 | 209 | 22.0 | 32.0 | 0.00 | 0.00 | 0.00 | 100 | 900.0 |
| 20260506071110 | 52 | 215 | 21.0 | 32.0 | 0.00 | 0.00 | 0.00 | 100 | 892.1 |
| 20260506071010 | 52 | 223 | 21.0 | 31.0 | 0.00 | 0.00 | 0.00 | 100 | 895.9 |
| 20260506070909 | 52 | 224 | 21.0 | 31.0 | 0.00 | 0.00 | 0.00 | 100 | 894.2 |
| 20260506070708 | 52 | 227 | 21.0 | 31.0 | 0.00 | 0.00 | 0.00 | 100 | 892.0 |
| 20260506070508 | 51 | 223 | 21.0 | 30.0 | 0.00 | 0.00 | 0.00 | 100 | 896.1 |
| 20260506070317 | 52 | 211 | 21.0 | 36.0 | 0.00 | 0.00 | 0.00 | 100 | 890.6 |
| 20260506070307 | 51 | 211 | 21.0 | 36.0 | 0.00 | 0.00 | 0.00 | 100 | 892.6 |
| 20260506070106 | 51 | 214 | 21.0 | 36.0 | 0.00 | 0.00 | 0.00 | 100 | 898.3 |
| 20260506062417 | 49 | 223 | 18.0 | 30.0 | 0.00 | 0.00 | 0.00 | 100 | 895.1 |
| 20260506062215 | 49 | 229 | 20.0 | 30.0 | 0.00 | 0.00 | 0.00 | 100 | 891.1 |
| 20260506061933 | 49 | 231 | 22.0 | 31.0 | 0.00 | 0.00 | 0.00 | 100 | 891.5 |
| 20260506061706 | 49 | 227 | 22.0 | 37.0 | 0.00 | 0.00 | 0.00 | 100 | 897.4 |
| 20260506061608 | 49 | 225 | 22.0 | 37.0 | 0.00 | 0.00 | 0.00 | 100 | 897.4 |
| 20260506061407 | 49 | 222 | 22.0 | 37.0 | 0.00 | 0.00 | 0.00 | 100 | 892.7 |
| 20260506061204 | 49 | 221 | 22.0 | 34.0 | 0.00 | 0.00 | 0.00 | 100 | 890.5 |
| 20260506061004 | 48 | 223 | 23.0 | 34.0 | 0.00 | 0.00 | 0.00 | 100 | 894.3 |
| 20260506060804 | 48 | 220 | 23.0 | 34.0 | 0.00 | 0.00 | 0.00 | 100 | 894.3 |
| 20260506060701 | 48 | 220 | 23.0 | 34.0 | 0.00 | 0.00 | 0.00 | 100 | 891.8 |
| 20260506060147 | 48 | 223 | 23.0 | 33.0 | 0.00 | 0.00 | 0.00 | 100 | 890.3 |
| 20260506051125 | 47 | 213 | 28.0 | 43.0 | 0.00 | 0.00 | 0.00 | 100 | 891.0 |
| 20260506050624 | 47 | 214 | 27.0 | 42.0 | 0.00 | 0.00 | 0.00 | 100 | 895.0 |
| 20260506050123 | 48 | 219 | 30.0 | 48.0 | 0.00 | 0.00 | 0.00 | 100 | 891.6 |
| 20260506045119 | 47 | 221 | 29.0 | 50.0 | 0.00 | 0.00 | 0.00 | 100 | 890.4 |
| 20260506044616 | 47 | 221 | 29.0 | 48.0 | 0.00 | 0.00 | 0.00 | 100 | 887.9 |
| 20260506044522 | 47 | 221 | 30.0 | 49.0 | 0.00 | 0.00 | 0.00 | 100 | 887.9 |
| 20260506044115 | 47 | 220 | 28.0 | 49.0 | 0.00 | 0.00 | 0.00 | 100 | 889.4 |
| 20260506043613 | 47 | 222 | 25.0 | 42.0 | 0.00 | 0.00 | 0.00 | 100 | 895.3 |
| 20260506043316 | 47 | 220 | 27.0 | 49.0 | 0.00 | 0.00 | 0.00 | 100 | 894.8 |
| 20260506043110 | 47 | 220 | 26.0 | 49.0 | 0.00 | 0.00 | 0.00 | 100 | 891.0 |
| 20260506042607 | 47 | 218 | 27.0 | 44.0 | 0.00 | 0.00 | 0.00 | 100 | 894.7 |
| 20260506042105 | 47 | 216 | 27.0 | 48.0 | 0.00 | 0.00 | 0.00 | 100 | 892.2 |
| 20260506041603 | 47 | 216 | 26.0 | 43.0 | 0.00 | 0.00 | 0.00 | 100 | 893.3 |
| 20260506041101 | 47 | 217 | 29.0 | 46.0 | 0.00 | 0.00 | 0.00 | 100 | 889.3 |
| 20260506040601 | 47 | 217 | 25.0 | 46.0 | 0.00 | 0.00 | 0.00 | 100 | 891.6 |
| 20260506040059 | 48 | 215 | 25.0 | 41.0 | 0.00 | 0.00 | 0.00 | 100 | 891.4 |
| 20260506035556 | 48 | 213 | 27.0 | 41.0 | 0.00 | 0.00 | 0.00 | 100 | 893.9 |
| 20260506035054 | 48 | 212 | 26.0 | 40.0 | 0.00 | 0.00 | 0.00 | 100 | 893.4 |
| 20260506034657 | 48 | 216 | 28.0 | 50.0 | 0.00 | 0.00 | 0.00 | 100 | 888.6 |
| 20260506034551 | 48 | 220 | 28.0 | 50.0 | 0.00 | 0.00 | 0.00 | 100 | 892.2 |
| 20260506034036 | 48 | 214 | 24.0 | 40.0 | 0.00 | 0.00 | 0.00 | 100 | 892.0 |
| 20260506033535 | 48 | 222 | 29.0 | 43.0 | 0.00 | 0.00 | 0.00 | 100 | 894.1 |
| 20260506033242 | 48 | 217 | 28.0 | 45.0 | 0.00 | 0.00 | 0.00 | 100 | 891.2 |
| 20260506033033 | 48 | 217 | 27.0 | 45.0 | 0.00 | 0.00 | 0.00 | 100 | 893.8 |
| 20260506032531 | 48 | 213 | 24.0 | 40.0 | 0.00 | 0.00 | 0.00 | 100 | 892.3 |
| 20260506032026 | 48 | 210 | 24.0 | 48.0 | 0.00 | 0.00 | 0.00 | 100 | 888.1 |
| 20260506031524 | 48 | 214 | 25.0 | 44.0 | 0.00 | 0.00 | 0.00 | 100 | 893.1 |
| 20260506031023 | 49 | 215 | 29.0 | 42.0 | 0.00 | 0.00 | 0.00 | 100 | 893.2 |
| 20260506030521 | 49 | 212 | 24.0 | 43.0 | 0.00 | 0.00 | 0.00 | 100 | 889.1 |
| 20260506030020 | 49 | 217 | 24.0 | 45.0 | 0.00 | 0.00 | 0.00 | 100 | 890.2 |
| 20260506025016 | 49 | 216 | 23.0 | 42.0 | 0.00 | 0.00 | 0.00 | 100 | 889.4 |
| 20260506024513 | 49 | 216 | 24.0 | 44.0 | 0.00 | 0.00 | 0.00 | 100 | 891.1 |
| 20260506024011 | 49 | 216 | 24.0 | 39.0 | 0.00 | 0.00 | 0.00 | 100 | 896.8 |
| 20260506023510 | 49 | 216 | 23.0 | 39.0 | 0.00 | 0.00 | 0.00 | 100 | 895.8 |
| 20260506023210 | 50 | 217 | 25.0 | 41.0 | 0.00 | 0.00 | 0.00 | 100 | 889.0 |
| 20260506023008 | 49 | 217 | 22.0 | 41.0 | 0.00 | 0.00 | 0.00 | 100 | 890.2 |
| 20260506022506 | 49 | 213 | 22.0 | 41.0 | 0.00 | 0.00 | 0.00 | 100 | 892.0 |
| 20260506022004 | 50 | 216 | 20.0 | 38.0 | 0.00 | 0.00 | 0.00 | 100 | 890.4 |
| 20260506021502 | 50 | 209 | 22.0 | 41.0 | 0.00 | 0.00 | 0.00 | 100 | 890.4 |
| 20260506021000 | 50 | 218 | 22.0 | 37.0 | 0.00 | 0.00 | 0.00 | 100 | 893.3 |
| 20260506020456 | 50 | 214 | 24.0 | 41.0 | 0.00 | 0.00 | 0.00 | 100 | 892.1 |
| 20260506015955 | 50 | 220 | 24.0 | 37.0 | 0.00 | 0.00 | 0.00 | 100 | 888.7 |
| 20260506015451 | 50 | 218 | 24.0 | 39.0 | 0.00 | 0.00 | 0.00 | 100 | 892.3 |
| 20260506014950 | 50 | 221 | 28.0 | 44.0 | 0.00 | 0.00 | 0.00 | 100 | 888.2 |
| 20260506014449 | 51 | 215 | 25.0 | 45.0 | 0.00 | 0.00 | 0.00 | 100 | 896.6 |
| 20260506013947 | 51 | 217 | 27.0 | 44.0 | 0.00 | 0.00 | 0.00 | 100 | 888.0 |
| 20260506013442 | 51 | 215 | 26.0 | 42.0 | 0.00 | 0.00 | 0.00 | 100 | 889.6 |
| 20260506012940 | 51 | 222 | 24.0 | 42.0 | 0.00 | 0.00 | 0.00 | 100 | 891.9 |
| 20260506012438 | 51 | 221 | 23.0 | 40.0 | 0.00 | 0.00 | 0.00 | 100 | 890.6 |
| 20260506011935 | 51 | 221 | 21.0 | 39.0 | 0.00 | 0.00 | 0.00 | 100 | 894.5 |
| 20260506011433 | 51 | 209 | 21.0 | 34.0 | 0.00 | 0.00 | 0.00 | 100 | 890.6 |
| 20260506010932 | 51 | 215 | 19.0 | 30.0 | 0.00 | 0.00 | 0.00 | 100 | 896.2 |
| 20260506010419 | 51 | 209 | 17.0 | 28.0 | 0.00 | 0.00 | 0.00 | 100 | 897.5 |
| 20260506005916 | 51 | 204 | 17.0 | 33.0 | 0.00 | 0.00 | 0.00 | 100 | 890.0 |
| 20260506005516 | 51 | 221 | 20.0 | 37.0 | 0.00 | 0.00 | 0.00 | 100 | 889.3 |
| 20260506005413 | 51 | 221 | 20.0 | 37.0 | 0.00 | 0.00 | 0.00 | 100 | 891.9 |
| 20260506004913 | 52 | 212 | 18.0 | 34.0 | 0.00 | 0.00 | 0.00 | 100 | 889.8 |
| 20260506004410 | 52 | 217 | 23.0 | 35.0 | 0.00 | 0.00 | 0.00 | 100 | 888.8 |
| 20260506003908 | 52 | 217 | 23.0 | 40.0 | 0.00 | 0.00 | 0.00 | 100 | 895.7 |
| 20260506003406 | 52 | 219 | 23.0 | 42.0 | 0.00 | 0.00 | 0.00 | 100 | 894.0 |
| 20260506002903 | 52 | 217 | 24.0 | 40.0 | 0.00 | 0.00 | 0.00 | 100 | 889.2 |
| 20260506002401 | 52 | 218 | 26.0 | 49.0 | 0.00 | 0.00 | 0.00 | 100 | 898.1 |
| 20260506001859 | 53 | 216 | 23.0 | 53.0 | 0.00 | 0.00 | 0.00 | 100 | 896.5 |
| 20260506001359 | 53 | 215 | 26.0 | 43.0 | 0.00 | 0.00 | 0.00 | 100 | 889.0 |
| 20260506000857 | 53 | 215 | 26.0 | 49.0 | 0.00 | 0.00 | 0.00 | 100 | 897.3 |
| 20260506000355 | 53 | 217 | 22.0 | 48.0 | 0.00 | 0.00 | 0.00 | 100 | 895.3 |
| 20260505235854 | 53 | 218 | 23.0 | 40.0 | 0.00 | 0.00 | 0.00 | 100 | 889.7 |
| 20260505235353 | 53 | 215 | 25.0 | 43.0 | 0.00 | 0.00 | 0.00 | 100 | 889.7 |
| 20260505234851 | 54 | 217 | 26.0 | 44.0 | 0.00 | 0.00 | 0.00 | 100 | 892.7 |
| 20260505234349 | 54 | 215 | 26.0 | 48.0 | 0.00 | 0.00 | 0.00 | 100 | 890.0 |
| 20260505233848 | 54 | 210 | 24.0 | 48.0 | 0.00 | 0.00 | 0.00 | 100 | 890.9 |
| 20260505233345 | 54 | 213 | 23.0 | 43.0 | 0.00 | 0.00 | 0.00 | 100 | 890.8 |
| 20260505233246 | 54 | 213 | 23.0 | 45.0 | 0.00 | 0.00 | 0.00 | 100 | 890.8 |
| 20260505233040 | 54 | 214 | 26.0 | 50.0 | 0.00 | 0.00 | 0.00 | 100 | 889.1 |
| 20260505232838 | 54 | 214 | 24.0 | 50.0 | 0.00 | 0.00 | 0.00 | 100 | 891.1 |
| 20260505232637 | 55 | 212 | 24.0 | 41.0 | 0.00 | 0.00 | 0.00 | 100 | 894.4 |
| 20260505232437 | 55 | 213 | 27.0 | 46.0 | 0.00 | 0.00 | 0.00 | 100 | 890.0 |
| 20260505232337 | 55 | 211 | 28.0 | 46.0 | 0.00 | 0.00 | 0.00 | 100 | 896.7 |
| 20260505232236 | 55 | 210 | 28.0 | 46.0 | 0.00 | 0.00 | 0.00 | 100 | 889.2 |
| 20260505232035 | 55 | 211 | 25.0 | 46.0 | 0.00 | 0.00 | 0.00 | 100 | 890.4 |
| 20260505231835 | 55 | 217 | 24.0 | 45.0 | 0.00 | 0.00 | 0.00 | 100 | 897.0 |
| 20260505231634 | 55 | 218 | 26.0 | 45.0 | 0.00 | 0.00 | 0.00 | 100 | 890.7 |
| 20260505231433 | 55 | 222 | 25.0 | 45.0 | 0.00 | 0.00 | 0.00 | 100 | 894.4 |
| 20260505231334 | 55 | 220 | 24.0 | 40.0 | 0.00 | 0.00 | 0.00 | 100 | 889.8 |
| 20260505231232 | 55 | 217 | 25.0 | 41.0 | 0.00 | 0.00 | 0.00 | 100 | 891.7 |
| 20260505231032 | 55 | 215 | 26.0 | 43.0 | 0.00 | 0.00 | 0.00 | 100 | 895.5 |
| 20260505230831 | 55 | 214 | 27.0 | 43.0 | 0.00 | 0.00 | 0.00 | 100 | 889.6 |
| 20260505230630 | 55 | 218 | 24.0 | 43.0 | 0.00 | 0.00 | 0.00 | 100 | 895.6 |
| 20260505230429 | 55 | 221 | 22.0 | 36.0 | 0.00 | 0.00 | 0.00 | 100 | 889.8 |
| 20260505230330 | 55 | 221 | 23.0 | 39.0 | 0.00 | 0.00 | 0.00 | 100 | 890.5 |
| 20260505230225 | 55 | 220 | 24.0 | 42.0 | 0.00 | 0.00 | 0.00 | 100 | 893.2 |
| 20260505230025 | 55 | 211 | 28.0 | 56.0 | 0.00 | 0.00 | 0.00 | 100 | 889.5 |
| 20260505225824 | 56 | 210 | 30.0 | 56.0 | 0.00 | 0.00 | 0.00 | 100 | 895.5 |
| 20260505225624 | 55 | 215 | 26.0 | 49.0 | 0.00 | 0.00 | 0.00 | 100 | 895.0 |
| 20260505225423 | 56 | 211 | 26.0 | 42.0 | 0.00 | 0.00 | 0.00 | 100 | 889.6 |
| 20260505225324 | 56 | 211 | 26.0 | 46.0 | 0.00 | 0.00 | 0.00 | 100 | 891.4 |
| 20260505225222 | 55 | 209 | 25.0 | 46.0 | 0.00 | 0.00 | 0.00 | 100 | 896.2 |
| 20260505225022 | 55 | 211 | 25.0 | 46.0 | 0.00 | 0.00 | 0.00 | 100 | 889.8 |
| 20260505224821 | 56 | 211 | 27.0 | 51.0 | 0.00 | 0.00 | 0.00 | 100 | 896.0 |
| 20260505224620 | 55 | 212 | 25.0 | 51.0 | 0.00 | 0.00 | 0.00 | 100 | 889.8 |
| 20260505224420 | 55 | 214 | 21.0 | 37.0 | 0.00 | 0.00 | 0.00 | 100 | 890.2 |
| 20260505224319 | 55 | 212 | 21.0 | 37.0 | 0.00 | 0.00 | 0.00 | 100 | 891.9 |
| 20260505224146 | 55 | 212 | 21.0 | 51.0 | 0.00 | 0.00 | 0.00 | 100 | 895.8 |
| 20260505224043 | 55 | 216 | 22.0 | 51.0 | 0.00 | 0.00 | 0.00 | 100 | 890.2 |
| 20260505223840 | 55 | 219 | 25.0 | 51.0 | 0.00 | 0.00 | 0.00 | 100 | 892.9 |
| 20260505223638 | 55 | 218 | 23.0 | 41.0 | 0.00 | 0.00 | 0.00 | 100 | 891.0 |
| 20260505223437 | 55 | 208 | 22.0 | 38.0 | 0.00 | 0.00 | 0.00 | 100 | 891.0 |
| 20260505223236 | 55 | 203 | 20.0 | 35.0 | 0.00 | 0.00 | 0.00 | 100 | 896.7 |
| 20260505223137 | 55 | 205 | 19.0 | 35.0 | 0.00 | 0.00 | 0.00 | 100 | 896.7 |
| 20260505223036 | 55 | 208 | 20.0 | 36.0 | 0.00 | 0.00 | 0.00 | 100 | 893.7 |
| 20260505222835 | 55 | 206 | 21.0 | 36.0 | 0.00 | 0.00 | 0.00 | 100 | 890.9 |
| 20260505222634 | 55 | 199 | 22.0 | 36.0 | 0.00 | 0.00 | 0.00 | 100 | 894.7 |
| 20260505222433 | 55 | 202 | 19.0 | 38.0 | 0.00 | 0.00 | 0.00 | 100 | 894.0 |
| 20260505222235 | 55 | 203 | 20.0 | 37.0 | 0.00 | 0.00 | 0.00 | 100 | 892.6 |
| 20260505222232 | 55 | 203 | 20.0 | 37.0 | 0.00 | 0.00 | 0.00 | 100 | 891.3 |
| 20260505222132 | 55 | 203 | 21.0 | 37.0 | 0.00 | 0.00 | 0.00 | 100 | 891.3 |
| 20260505222020 | 55 | 203 | 22.0 | 37.0 | 0.00 | 0.00 | 0.00 | 100 | 896.8 |
| 20260505221819 | 55 | 207 | 20.0 | 35.0 | 0.00 | 0.00 | 0.00 | 100 | 896.2 |
| 20260505221618 | 55 | 210 | 18.0 | 33.0 | 0.00 | 0.00 | 0.00 | 100 | 894.2 |
| 20260505221418 | 55 | 210 | 17.0 | 31.0 | 0.00 | 0.00 | 0.00 | 100 | 891.3 |
| 20260505221219 | 55 | 207 | 19.0 | 37.0 | 0.00 | 0.00 | 0.00 | 100 | 892.7 |
| 20260505221216 | 55 | 207 | 19.0 | 37.0 | 0.00 | 0.00 | 0.00 | 100 | 895.5 |
| 20260505221116 | 55 | 207 | 19.0 | 37.0 | 0.00 | 0.00 | 0.00 | 100 | 895.5 |
| 20260505220833 | 55 | 202 | 18.0 | 32.0 | 0.00 | 0.00 | 0.00 | 100 | 896.7 |
| 20260505220629 | 55 | 201 | 16.0 | 24.0 | 0.00 | 0.00 | 0.00 | 100 | 892.9 |
| 20260505220425 | 55 | 199 | 16.0 | 29.0 | 0.00 | 0.00 | 0.00 | 100 | 891.9 |
| 20260505220324 | 55 | 196 | 16.0 | 29.0 | 0.00 | 0.00 | 0.00 | 100 | 892.9 |
| 20260505220221 | 55 | 199 | 19.0 | 31.0 | 0.00 | 0.00 | 0.00 | 100 | 891.5 |
| 20260505220020 | 56 | 207 | 19.0 | 31.0 | 0.00 | 0.00 | 0.00 | 100 | 893.5 |
| 20260505215819 | 56 | 208 | 19.0 | 37.0 | 0.00 | 0.00 | 0.00 | 100 | 891.5 |
| 20260505215618 | 56 | 203 | 20.0 | 37.0 | 0.00 | 0.00 | 0.00 | 100 | 893.5 |
| 20260505215418 | 56 | 203 | 21.0 | 37.0 | 0.00 | 0.00 | 0.00 | 100 | 893.1 |
| 20260505215318 | 56 | 205 | 19.0 | 33.0 | 0.00 | 0.00 | 0.00 | 100 | 893.9 |
| 20260505215217 | 56 | 208 | 18.0 | 30.0 | 0.00 | 0.00 | 0.00 | 100 | 893.9 |
| 20260505215016 | 56 | 206 | 19.0 | 37.0 | 0.00 | 0.00 | 0.00 | 100 | 895.2 |
| 20260505214815 | 56 | 200 | 22.0 | 37.0 | 0.00 | 0.00 | 0.00 | 100 | 893.6 |
| 20260505214614 | 56 | 203 | 22.0 | 40.0 | 0.00 | 0.00 | 0.00 | 100 | 892.2 |
| 20260505214414 | 56 | 205 | 25.0 | 40.0 | 0.00 | 0.00 | 0.00 | 100 | 892.0 |
| 20260505214314 | 56 | 202 | 24.0 | 40.0 | 0.00 | 0.00 | 0.00 | 100 | 894.8 |
| 20260505214212 | 56 | 201 | 21.0 | 40.0 | 0.00 | 0.00 | 0.00 | 100 | 891.5 |
| 20260505214012 | 56 | 200 | 18.0 | 39.0 | 0.00 | 0.00 | 0.00 | 100 | 893.2 |
| 20260505213811 | 56 | 198 | 19.0 | 35.0 | 0.00 | 0.00 | 0.00 | 100 | 896.6 |
| 20260505213610 | 56 | 201 | 20.0 | 38.0 | 0.00 | 0.00 | 0.00 | 100 | 892.1 |
| 20260505213407 | 56 | 207 | 21.0 | 39.0 | 0.00 | 0.00 | 0.00 | 100 | 894.4 |
| 20260505213305 | 56 | 205 | 21.0 | 42.0 | 0.00 | 0.00 | 0.00 | 100 | 895.9 |
| 20260505213029 | 56 | 201 | 18.0 | 42.0 | 0.00 | 0.00 | 0.00 | 100 | 891.4 |
| 20260505212928 | 56 | 201 | 17.0 | 32.0 | 0.00 | 0.00 | 0.00 | 100 | 891.9 |
| 20260505212825 | 56 | 201 | 16.0 | 32.0 | 0.00 | 0.00 | 0.00 | 100 | 892.9 |
| 20260505212621 | 56 | 200 | 18.0 | 32.0 | 0.00 | 0.00 | 0.00 | 100 | 894.6 |
| 20260505212417 | 56 | 203 | 18.0 | 32.0 | 0.00 | 0.00 | 0.00 | 100 | 893.3 |
| 20260505212216 | 55 | 205 | 16.0 | 32.0 | 0.00 | 0.00 | 0.00 | 100 | 893.8 |
| 20260505212016 | 55 | 210 | 17.0 | 32.0 | 0.00 | 0.00 | 0.00 | 100 | 896.9 |
| 20260505211915 | 55 | 211 | 16.0 | 32.0 | 0.00 | 0.00 | 0.00 | 100 | 892.9 |
| 20260505211750 | 56 | 208 | 17.0 | 26.0 | 0.00 | 0.00 | 0.00 | 100 | 897.1 |
| 20260505211649 | 56 | 204 | 16.0 | 26.0 | 0.00 | 0.00 | 0.00 | 100 | 892.3 |
| 20260505211506 | 56 | 201 | 16.0 | 26.0 | 0.00 | 0.00 | 0.00 | 100 | 895.6 |
| 20260505211405 | 56 | 201 | 17.0 | 33.0 | 0.00 | 0.00 | 0.00 | 100 | 895.6 |
| 20260505211211 | 56 | 201 | 17.0 | 33.0 | 0.00 | 0.00 | 0.00 | 100 | 897.4 |
| 20260505211107 | 56 | 202 | 16.0 | 33.0 | 0.00 | 0.00 | 0.00 | 100 | 892.2 |
| 20260505210906 | 56 | 207 | 15.0 | 24.0 | 0.00 | 0.00 | 0.00 | 100 | 892.8 |
| 20260505210745 | 56 | 209 | 12.0 | 22.0 | 0.00 | 0.00 | 0.00 | 100 | 896.6 |
| 20260505210705 | 56 | 209 | 12.0 | 22.0 | 0.00 | 0.00 | 0.00 | 100 | 896.6 |
| 20260505210503 | 56 | 205 | 13.0 | 22.0 | 0.00 | 0.00 | 0.00 | 100 | 897.4 |
| 20260505210303 | 56 | 204 | 14.0 | 23.0 | 0.00 | 0.00 | 0.00 | 100 | 892.7 |
| 20260505210203 | 56 | 205 | 13.0 | 23.0 | 0.00 | 0.00 | 0.00 | 100 | 892.7 |
| 20260505210050 | 56 | 208 | 13.0 | 23.0 | 0.00 | 0.00 | 0.00 | 100 | 893.9 |
| 20260505205844 | 56 | 210 | 14.0 | 24.0 | 0.00 | 0.00 | 0.00 | 100 | 893.7 |
| 20260505205642 | 56 | 211 | 15.0 | 25.0 | 0.00 | 0.00 | 0.00 | 100 | 899.1 |
| 20260505205437 | 56 | 206 | 15.0 | 28.0 | 0.00 | 0.00 | 0.00 | 100 | 892.7 |
| 20260505205335 | 56 | 205 | 15.0 | 30.0 | 0.00 | 0.00 | 0.00 | 100 | 892.9 |
| 20260505205233 | 56 | 207 | 15.0 | 30.0 | 0.00 | 0.00 | 0.00 | 100 | 893.4 |
| 20260505205029 | 56 | 207 | 15.0 | 30.0 | 0.00 | 0.00 | 0.00 | 100 | 893.4 |
| 20260505204824 | 57 | 205 | 15.0 | 29.0 | 0.00 | 0.00 | 0.00 | 100 | 897.4 |
| 20260505204729 | 57 | 207 | 15.0 | 24.0 | 0.00 | 0.00 | 0.00 | 100 | 893.0 |
| 20260505204624 | 57 | 209 | 14.0 | 24.0 | 0.00 | 0.00 | 0.00 | 100 | 892.7 |
| 20260505204528 | 56 | 207 | 15.0 | 24.0 | 0.00 | 0.00 | 0.00 | 100 | 892.9 |
| 20260505204421 | 56 | 205 | 16.0 | 26.0 | 0.00 | 0.00 | 0.00 | 100 | 893.3 |
| 20260505204320 | 56 | 205 | 16.0 | 26.0 | 0.00 | 0.00 | 0.00 | 100 | 893.3 |
| 20260505204106 | 57 | 204 | 15.0 | 26.0 | 0.00 | 0.00 | 0.00 | 100 | 897.1 |
| 20260505204005 | 57 | 207 | 15.0 | 26.0 | 0.00 | 0.00 | 0.00 | 100 | 894.7 |
| 20260505203902 | 57 | 211 | 16.0 | 28.0 | 0.00 | 0.00 | 0.00 | 100 | 897.0 |
| 20260505203658 | 57 | 218 | 18.0 | 28.0 | 0.00 | 0.00 | 0.00 | 100 | 892.8 |
| 20260505203454 | 57 | 212 | 17.0 | 26.0 | 0.00 | 0.00 | 0.00 | 100 | 893.2 |
| 20260505203250 | 57 | 210 | 15.0 | 26.0 | 0.00 | 0.00 | 0.00 | 100 | 895.7 |
| 20260505203047 | 57 | 215 | 16.0 | 31.0 | 0.00 | 0.00 | 0.00 | 100 | 894.6 |
| 20260505202946 | 57 | 218 | 18.0 | 34.0 | 0.00 | 0.00 | 0.00 | 100 | 894.6 |
| 20260505202731 | 57 | 219 | 19.0 | 34.0 | 0.00 | 0.00 | 0.00 | 100 | 893.0 |
| 20260505202630 | 57 | 214 | 18.0 | 34.0 | 0.00 | 0.00 | 0.00 | 100 | 892.8 |
| 20260505202527 | 57 | 212 | 17.0 | 27.0 | 0.00 | 0.00 | 0.00 | 100 | 892.9 |
| 20260505202324 | 57 | 221 | 17.0 | 29.0 | 0.00 | 0.00 | 0.00 | 100 | 896.3 |
| 20260505202120 | 57 | 218 | 18.0 | 29.0 | 0.00 | 0.00 | 0.00 | 100 | 893.4 |
| 20260505201916 | 57 | 210 | 18.0 | 33.0 | 0.00 | 0.00 | 0.00 | 100 | 897.7 |
| 20260505201714 | 57 | 210 | 19.0 | 36.0 | 0.00 | 0.00 | 0.00 | 100 | 893.6 |
| 20260505201613 | 57 | 210 | 19.0 | 36.0 | 0.00 | 0.00 | 0.00 | 100 | 893.6 |
| 20260505201359 | 58 | 211 | 18.0 | 36.0 | 0.00 | 0.00 | 0.00 | 100 | 894.5 |
| 20260505201156 | 58 | 212 | 19.0 | 35.0 | 0.00 | 0.00 | 0.00 | 100 | 896.6 |
| 20260505200951 | 58 | 221 | 20.0 | 35.0 | 0.00 | 0.00 | 0.00 | 100 | 893.9 |
| 20260505200851 | 58 | 220 | 20.0 | 32.0 | 0.00 | 0.00 | 0.00 | 100 | 893.7 |
| 20260505200748 | 58 | 220 | 19.0 | 32.0 | 0.00 | 0.00 | 0.00 | 100 | 893.5 |
| 20260505200544 | 58 | 216 | 18.0 | 31.0 | 0.00 | 0.00 | 0.00 | 100 | 893.7 |
| 20260505200339 | 58 | 215 | 19.0 | 32.0 | 0.00 | 0.00 | 0.00 | 100 | 896.2 |
| 20260505200137 | 58 | 215 | 20.0 | 32.0 | 0.00 | 0.00 | 0.00 | 100 | 894.0 |
| 20260505195940 | 58 | 211 | 19.0 | 32.0 | 0.00 | 0.00 | 0.00 | 100 | 894.0 |
| 20260505195936 | 58 | 211 | 19.0 | 32.0 | 0.00 | 0.00 | 0.00 | 100 | 893.9 |
| 20260505195834 | 58 | 211 | 19.0 | 32.0 | 0.00 | 0.00 | 0.00 | 100 | 893.9 |
| 20260505195644 | 58 | 210 | 18.0 | 32.0 | 0.00 | 0.00 | 0.00 | 100 | 893.7 |